Change the Weather History Date:

Monday, November 19, 2012

  Actual Average (KSBY) Record (KSBY)
Temperature  
Mean Temperature 52 °F 47 °F  
Max Temperature 53 °F 58 °F 80 °F (1921)
Min Temperature 50 °F 37 °F 17 °F (1936)
Degree Days  
Heating Degree Days 14 18  
Month to date heating degree days 288  
Since 1 July heating degree days 601  
Cooling Degree Days 0 0  
Month to date cooling degree days 0  
Year to date cooling degree days 1150  
Growing Degree Days 2 (Base 50)    
Moisture  
Dew Point 47 °F    
Average Humidity 87    
Maximum Humidity 93    
Minimum Humidity 80    
Precipitation  
Precipitation 0.00 in 0.11 in 1.93 in (2003)
Month to date precipitation 2.12  
Year to date precipitation 40.66  
Snow  
Snow 0.00 in 0.00 in 0.00 in (2002)
Month to date snowfall 0.1  
Since 1 July snowfall 0.1  
Snow Depth -    
Sea Level Pressure  
Sea Level Pressure 30.30 in    
Wind  
Wind Speed 14 mph (NNE)    
Max Wind Speed 17 mph    
Max Gust Speed 26 mph    
Visibility 10 miles    
Events      
T = Trace of Precipitation, MM = Missing Value Source: NWS Daily Summary

Daily Weather History Graph

Daily Weather History Graph

Search for Another Location

Airport or City:

Trip Planner

Search our weather history database for the weather conditions in past years. The results will help you decide how hot, cold, wet, or windy it might be!

Date:

Astronomy

Nov. 19, 2012 Rise Set
Actual Time 6:46 AM EST 4:45 PM EST
Civil Twilight 6:18 AM EST 5:13 PM EST
Nautical Twilight 5:45 AM EST 5:45 PM EST
Astronomical Twilight 5:14 AM EST 6:17 PM EST
Moon 11:49 AM EST (11/19) 11:07 PM EST (11/19)
Length of Visible Light 10h 55m
Length of Day
9h 58m
Waxing Crescent, 40% of the Moon is Illuminated
Nov 19
Waxing Crescent
Nov 20
First Quarter
Nov 28
Full
Dec 6
Last Quarter
Dec 13
New

Hourly Weather History & Observations

Time (EST) Temp. Dew Point Humidity Pressure Visibility Wind Dir Wind Speed Gust Speed Precip Events Conditions
12:19 AM 51.8 °F 46.4 °F 82% 30.42 in 10.0 mi NE 12.7 mph 24.2 mph N/A   Overcast
12:53 AM 53.1 °F 46.9 °F 80% 30.40 in 10.0 mi NE 12.7 mph 19.6 mph N/A   Overcast
1:53 AM 53.1 °F 46.9 °F 80% 30.39 in 10.0 mi NNE 12.7 mph 21.9 mph N/A   Overcast
2:53 AM 52.0 °F 46.9 °F 83% 30.38 in 10.0 mi NE 12.7 mph 21.9 mph N/A   Overcast
3:53 AM 52.0 °F 48.0 °F 86% 30.37 in 10.0 mi NE 16.1 mph 21.9 mph N/A   Overcast
4:53 AM 52.0 °F 48.0 °F 86% 30.36 in 10.0 mi NNE 13.8 mph 24.2 mph N/A   Overcast
5:53 AM 52.0 °F 48.0 °F 86% 30.36 in 10.0 mi NNE 13.8 mph 24.2 mph N/A   Overcast
6:51 AM 51.8 °F 48.2 °F 88% 30.36 in 10.0 mi NNE 15.0 mph 24.2 mph N/A   Overcast
6:53 AM 52.0 °F 48.0 °F 86% 30.36 in 10.0 mi NNE 13.8 mph 24.2 mph N/A   Overcast
7:53 AM 52.0 °F 48.0 °F 86% 30.36 in 10.0 mi NNE 13.8 mph 21.9 mph N/A   Overcast
8:53 AM 52.0 °F 48.0 °F 86% 30.35 in 9.0 mi NNE 15.0 mph 20.7 mph N/A   Overcast
9:53 AM 52.0 °F 48.9 °F 89% 30.34 in 8.0 mi NNE 11.5 mph 23.0 mph N/A   Overcast
10:49 AM 51.8 °F 48.2 °F 88% 30.32 in 9.0 mi NNE 12.7 mph 21.9 mph N/A   Overcast
10:53 AM 52.0 °F 48.9 °F 89% 30.32 in 9.0 mi NNE 13.8 mph 21.9 mph N/A   Overcast
11:53 AM 51.1 °F 48.0 °F 89% 30.29 in 8.0 mi NNE 16.1 mph 23.0 mph N/A   Overcast
12:53 PM 51.1 °F 48.0 °F 89% 30.27 in 9.0 mi NNE 15.0 mph 25.3 mph N/A   Overcast
1:53 PM 51.1 °F 46.9 °F 86% 30.26 in 9.0 mi NNE 16.1 mph 23.0 mph N/A   Overcast
2:53 PM 50.0 °F 46.9 °F 89% 30.25 in 9.0 mi NNE 13.8 mph 23.0 mph N/A   Overcast
3:53 PM 50.0 °F 46.0 °F 86% 30.25 in 10.0 mi North 13.8 mph 20.7 mph N/A   Overcast
4:53 PM 50.0 °F 46.9 °F 89% 30.25 in 10.0 mi NNE 17.3 mph 23.0 mph N/A   Overcast
5:53 PM 50.0 °F 46.9 °F 89% 30.25 in 10.0 mi NNE 11.5 mph 26.5 mph N/A   Overcast
6:53 PM 50.0 °F 46.9 °F 89% 30.23 in 10.0 mi NNE 16.1 mph 23.0 mph N/A   Overcast
7:09 PM 50.0 °F 46.4 °F 87% 30.23 in 10.0 mi NNE 13.8 mph 26.5 mph N/A   Overcast
7:53 PM 50.0 °F 46.9 °F 89% 30.22 in 10.0 mi NNE 13.8 mph 21.9 mph N/A   Overcast
8:53 PM 50.0 °F 46.9 °F 89% 30.21 in 9.0 mi NNE 11.5 mph 24.2 mph N/A   Overcast
9:53 PM 50.0 °F 46.9 °F 89% 30.21 in 9.0 mi NNE 12.7 mph 20.7 mph N/A   Overcast
10:53 PM 50.0 °F 46.9 °F 89% 30.19 in 9.0 mi NNE 13.8 mph 19.6 mph N/A   Overcast
11:53 PM 50.0 °F 48.0 °F 93% 30.17 in 9.0 mi NNE 10.4 mph - N/A   Overcast